W5IM Weather Reports


Display with metric or nautical units.
time (UTC)temp
F
wind
direction
speed
MPH
gust
MPH
rain 1hr
in
rain 24hr
in
rain mn
in
humidity
%
barometer
mb
20260505211012 90 170 7.0 14.0 0.00 0.00 0.00 60 1004.7
20260505210512 90 143 9.0 14.0 0.00 0.00 0.00 58 1004.8
20260505210011 89 147 9.0 12.0 0.00 0.00 0.00 59 1004.8
20260505205512 89 175 6.0 14.0 0.00 0.00 0.00 60 1004.9
20260505205011 89 151 9.0 14.0 0.00 0.00 0.00 60 1005.0
20260505204511 89 143 10.0 14.0 0.00 0.00 0.00 59 1005.0
20260505204012 89 132 9.0 13.0 0.00 0.00 0.00 58 1005.1
20260505203511 89 173 5.0 13.0 0.00 0.00 0.00 57 1005.2
20260505203011 89 149 7.0 13.0 0.00 0.00 0.00 59 1005.2
20260505202511 89 179 7.0 13.0 0.00 0.00 0.00 58 1005.3
20260505202012 89 153 8.0 15.0 0.00 0.00 0.00 57 1005.3
20260505201512 89 150 8.0 21.0 0.00 0.00 0.00 59 1005.4
20260505201012 90 156 7.0 18.0 0.00 0.00 0.00 55 1005.5
20260505200512 90 172 10.0 15.0 0.00 0.00 0.00 54 1005.4
20260505200011 90 195 7.0 12.0 0.00 0.00 0.00 57 1005.5
20260505195511 90 169 6.0 13.0 0.00 0.00 0.00 56 1005.6
20260505195011 89 183 7.0 15.0 0.00 0.00 0.00 57 1005.7
20260505194511 89 165 6.0 12.0 0.00 0.00 0.00 57 1005.7
20260505194012 89 151 10.0 16.0 0.00 0.00 0.00 56 1005.7
20260505193511 89 202 6.0 15.0 0.00 0.00 0.00 56 1005.9
20260505193011 90 178 5.0 14.0 0.00 0.00 0.00 57 1006.0
20260505192512 90 171 6.0 14.0 0.00 0.00 0.00 57 1006.1
20260505192012 90 181 7.0 15.0 0.00 0.00 0.00 56 1006.1
20260505191512 90 172 9.0 15.0 0.00 0.00 0.00 56 1006.1
20260505191011 89 174 6.0 15.0 0.00 0.00 0.00 58 1006.2
20260505190511 89 194 9.0 14.0 0.00 0.00 0.00 57 1006.2
20260505190011 88 179 7.0 10.0 0.00 0.00 0.00 60 1006.2
20260505185011 88 170 9.0 14.0 0.00 0.00 0.00 61 1006.3
20260505184511 87 161 9.0 14.0 0.00 0.00 0.00 62 1006.3
20260505184011 88 170 7.0 13.0 0.00 0.00 0.00 60 1006.3
20260505183011 88 212 8.0 13.0 0.00 0.00 0.00 60 1006.4
20260505182012 87 186 7.0 13.0 0.00 0.00 0.00 61 1006.5
20260505181511 87 203 9.0 14.0 0.00 0.00 0.00 62 1006.5
20260505180511 86 169 8.0 14.0 0.00 0.00 0.00 63 1006.5
20260505180010 86 212 10.0 16.0 0.00 0.00 0.00 61 1006.6
20260505175511 86 166 7.0 12.0 0.00 0.00 0.00 65 1006.7
20260505175011 85 215 9.0 17.0 0.00 0.00 0.00 64 1006.8
20260505174012 85 203 5.0 8.0 0.00 0.00 0.00 68 1007.0
20260505173511 84 215 6.0 15.0 0.00 0.00 0.00 69 1007.1
20260505173011 84 221 8.0 13.0 0.00 0.00 0.00 68 1007.2
20260505172511 83 160 7.0 14.0 0.00 0.00 0.00 70 1007.1
20260505172012 83 226 9.0 13.0 0.00 0.00 0.00 70 1007.3
20260505171511 83 204 7.0 12.0 0.00 0.00 0.00 70 1007.3
20260505171011 83 211 7.0 10.0 0.00 0.00 0.00 72 1007.4
20260505170511 83 197 7.0 10.0 0.00 0.00 0.00 71 1007.5
20260505165512 83 207 7.0 12.0 0.00 0.00 0.00 71 1007.5
20260505165011 82 215 7.0 12.0 0.00 0.00 0.00 73 1007.6
20260505164511 82 205 8.0 12.0 0.00 0.00 0.00 73 1007.7
20260505164011 81 209 9.0 13.0 0.00 0.00 0.00 74 1007.7
20260505163511 82 228 8.0 13.0 0.00 0.00 0.00 74 1007.8
20260505163011 82 217 7.0 12.0 0.00 0.00 0.00 74 1007.9
20260505162511 81 202 7.0 13.0 0.00 0.00 0.00 75 1007.9
20260505162011 81 211 9.0 13.0 0.00 0.00 0.00 75 1007.9
20260505161511 81 190 8.0 13.0 0.00 0.00 0.00 76 1007.9
20260505161012 81 219 9.0 13.0 0.00 0.00 0.00 76 1007.9
20260505160511 81 209 8.0 14.0 0.00 0.00 0.00 75 1007.9
20260505153011 79 204 10.0 16.0 0.00 0.00 0.00 79 1007.6
20260505152511 79 208 10.0 15.0 0.00 0.00 0.00 80 1007.6
20260505152011 79 215 10.0 14.0 0.00 0.00 0.00 80 1007.5
20260505151511 79 213 9.0 14.0 0.00 0.00 0.00 80 1007.5
20260505151011 79 209 8.0 13.0 0.00 0.00 0.00 81 1007.5
20260505150511 78 225 8.0 13.0 0.00 0.00 0.00 82 1007.6
20260505140511 76 194 5.0 10.0 0.00 0.00 0.00 87 1007.4
20260505125011 74 184 5.0 8.0 0.00 0.00 0.00 90 1007.4
20260505124511 74 193 5.0 8.0 0.00 0.00 0.00 90 1007.4
20260505122510 74 197 6.0 9.0 0.00 0.00 0.00 90 1007.4
20260505122012 74 192 5.0 9.0 0.00 0.00 0.00 90 1007.3
20260505121511 74 192 6.0 9.0 0.00 0.00 0.00 90 1007.2
20260505120511 74 191 7.0 9.0 0.00 0.00 0.00 90 1007.2
20260505120011 74 196 6.0 9.0 0.00 0.00 0.00 90 1007.2
20260505115511 74 202 7.0 10.0 0.00 0.00 0.00 90 1007.1
20260505115011 74 197 7.0 12.0 0.00 0.00 0.00 90 1007.1
20260505113513 74 193 6.0 8.0 0.00 0.00 0.00 90 1007.0
20260505113011 74 192 6.0 13.0 0.00 0.00 0.00 90 1007.1
20260505112510 74 188 6.0 9.0 0.00 0.00 0.00 90 1007.0
20260505112011 74 187 5.0 9.0 0.00 0.00 0.00 90 1007.0
20260505111511 74 202 8.0 13.0 0.00 0.00 0.00 90 1007.0
20260505111011 74 192 7.0 12.0 0.00 0.00 0.00 90 1007.1
20260505110512 74 196 7.0 12.0 0.00 0.00 0.00 90 1007.1
20260505102012 73 193 7.0 13.0 0.00 0.00 0.00 92 1006.9
20260505101011 73 184 6.0 10.0 0.00 0.00 0.00 92 1006.9
20260505100511 73 178 6.0 9.0 0.00 0.00 0.00 92 1006.9
20260505100011 72 172 6.0 9.0 0.00 0.00 0.00 92 1007.0
20260505095510 72 184 5.0 9.0 0.00 0.00 0.00 92 1007.1
20260505095011 72 185 6.0 9.0 0.00 0.00 0.00 92 1007.1
20260505094511 72 178 6.0 10.0 0.00 0.00 0.00 92 1007.1
20260505094014 72 170 6.0 9.0 0.00 0.00 0.00 92 1007.2
20260505093511 72 175 5.0 8.0 0.00 0.00 0.00 92 1007.2
20260505092510 72 178 5.0 9.0 0.00 0.00 0.00 93 1007.3
20260505092011 72 174 6.0 8.0 0.00 0.00 0.00 93 1007.4
20260505091511 72 184 5.0 7.0 0.00 0.00 0.00 93 1007.5
20260505091011 72 174 4.0 8.0 0.00 0.00 0.00 93 1007.5
20260505090511 72 179 3.0 7.0 0.00 0.00 0.00 93 1007.6
20260505085510 72 193 4.0 7.0 0.00 0.00 0.00 93 1007.4
20260505085011 72 184 4.0 7.0 0.00 0.00 0.00 93 1007.5
20260505084012 71 185 3.0 6.0 0.00 0.00 0.00 93 1007.6
20260505083512 71 178 3.0 6.0 0.00 0.00 0.00 93 1007.6
20260505082510 71 191 3.0 6.0 0.00 0.00 0.00 93 1007.7
20260505082010 71 191 2.0 5.0 0.00 0.00 0.00 93 1007.9
20260505081511 71 195 3.0 6.0 0.00 0.00 0.00 93 1007.9
20260505081011 71 187 3.0 6.0 0.00 0.00 0.00 93 1007.9
20260505080511 71 191 3.0 6.0 0.00 0.00 0.00 92 1007.9
20260505080012 71 182 3.0 6.0 0.00 0.00 0.00 92 1008.0
20260505075510 71 170 3.0 6.0 0.00 0.00 0.00 92 1007.9
20260505075011 71 186 3.0 6.0 0.00 0.00 0.00 92 1008.0
20260505073013 71 189 3.0 7.0 0.00 0.00 0.00 92 1008.2
20260505072510 72 186 5.0 7.0 0.00 0.00 0.00 92 1008.1
20260505072011 71 195 5.0 8.0 0.00 0.00 0.00 92 1008.2
20260505071511 72 180 5.0 8.0 0.00 0.00 0.00 92 1008.4
20260505070511 71 178 5.0 7.0 0.00 0.00 0.00 92 1008.5
20260505070011 72 183 5.0 9.0 0.00 0.00 0.00 92 1008.6
20260505065510 71 186 5.0 8.0 0.00 0.00 0.00 92 1008.7
20260505065011 72 187 4.0 8.0 0.00 0.00 0.00 92 1008.8
20260505064510 72 177 6.0 9.0 0.00 0.00 0.00 92 1008.7
20260505064011 72 191 6.0 10.0 0.00 0.00 0.00 92 1008.8
20260505063511 72 195 7.0 10.0 0.00 0.00 0.00 92 1008.8
20260505063010 72 171 6.0 8.0 0.00 0.00 0.00 91 1008.9
20260505062510 72 189 6.0 14.0 0.00 0.00 0.00 91 1009.1
20260505062010 72 187 6.0 9.0 0.00 0.00 0.00 91 1009.2
20260505061510 72 185 7.0 10.0 0.00 0.00 0.00 91 1009.2
20260505061011 72 197 6.0 9.0 0.00 0.00 0.00 91 1009.2
20260505060511 72 188 6.0 9.0 0.00 0.00 0.00 91 1009.2
20260505060010 72 184 6.0 9.0 0.00 0.00 0.00 91 1009.2
20260505055510 72 189 6.0 8.0 0.00 0.00 0.00 91 1009.2
20260505055010 72 184 5.0 8.0 0.00 0.00 0.00 90 1009.4
20260505054011 72 189 5.0 8.0 0.00 0.00 0.00 90 1009.4
20260505053010 72 188 5.0 8.0 0.00 0.00 0.00 90 1009.7
20260505052011 72 188 5.0 8.0 0.00 0.00 0.00 89 1009.6
20260505051511 72 181 6.0 8.0 0.00 0.00 0.00 89 1009.7
20260505051010 73 179 6.0 10.0 0.00 0.00 0.00 89 1009.7
20260505050511 73 185 6.0 8.0 0.00 0.00 0.00 89 1009.8
20260505040010 73 170 6.0 13.0 0.00 0.00 0.00 87 1009.7
20260505035510 73 173 6.0 10.0 0.00 0.00 0.00 87 1009.8
20260505034510 73 176 6.0 10.0 0.00 0.00 0.00 86 1009.6
20260505033010 73 162 7.0 13.0 0.00 0.00 0.00 86 1009.5
20260505032010 73 172 6.0 10.0 0.00 0.00 0.00 85 1009.6
20260505031510 73 177 6.0 10.0 0.00 0.00 0.00 85 1009.7
20260505031010 74 165 6.0 10.0 0.00 0.00 0.00 85 1009.7
20260505030511 74 169 7.0 10.0 0.00 0.00 0.00 84 1009.7
20260505030010 74 169 7.0 12.0 0.00 0.00 0.00 84 1009.8
20260505025511 74 169 5.0 9.0 0.00 0.00 0.00 83 1009.7
20260505025011 74 160 6.0 12.0 0.00 0.00 0.00 83 1009.6
20260505024510 74 160 8.0 13.0 0.00 0.00 0.00 83 1009.6
20260505024011 74 173 8.0 13.0 0.00 0.00 0.00 82 1009.5
20260505023510 74 159 9.0 14.0 0.00 0.00 0.00 82 1009.6
20260505022509 75 169 10.0 16.0 0.00 0.00 0.00 81 1009.4
20260505022010 75 160 10.0 15.0 0.00 0.00 0.00 81 1009.3
20260505021510 75 164 9.0 14.0 0.00 0.00 0.00 81 1009.4
20260505020510 75 159 10.0 16.0 0.00 0.00 0.00 80 1009.3
20260505020009 75 156 9.0 14.0 0.00 0.00 0.00 79 1009.2
20260505015510 75 163 11.0 16.0 0.00 0.00 0.00 79 1009.2
20260505015010 75 166 12.0 16.0 0.00 0.00 0.00 78 1009.1
20260505014511 76 158 12.0 17.0 0.00 0.00 0.00 78 1009.1
20260505014011 76 149 10.0 15.0 0.00 0.00 0.00 77 1009.1
20260505013510 76 166 13.0 17.0 0.00 0.00 0.00 76 1009.0
20260505012510 76 170 10.0 15.0 0.00 0.00 0.00 76 1008.9
20260505011010 77 161 12.0 17.0 0.00 0.00 0.00 74 1008.7
20260505010010 77 150 10.0 16.0 0.00 0.00 0.00 74 1008.9
20260505005510 78 156 10.0 16.0 0.00 0.00 0.00 73 1009.0
20260505005011 78 168 9.0 17.0 0.00 0.00 0.00 73 1008.9
20260505004510 78 151 10.0 16.0 0.00 0.00 0.00 72 1008.9
20260505004010 79 161 9.0 17.0 0.00 0.00 0.00 71 1008.9
20260505003510 79 177 9.0 15.0 0.00 0.00 0.00 71 1008.8
20260505003010 79 170 8.0 15.0 0.00 0.00 0.00 70 1008.8
20260505002510 79 182 7.0 12.0 0.00 0.00 0.00 70 1008.9
20260505002010 79 176 8.0 14.0 0.00 0.00 0.00 70 1008.7
20260505001515 79 169 10.0 16.0 0.00 0.00 0.00 70 1008.7
20260505001010 80 178 8.0 15.0 0.00 0.00 0.00 69 1008.7
20260505000510 80 161 8.0 14.0 0.00 0.00 0.00 69 1008.7
20260504235511 80 181 7.0 15.0 0.00 0.00 0.00 68 1008.8
20260504235010 80 165 7.0 14.0 0.00 0.00 0.00 67 1008.9
20260504234510 81 172 8.0 14.0 0.00 0.00 0.00 67 1009.0
20260504233510 81 177 9.0 17.0 0.00 0.00 0.00 66 1009.1
20260504232510 81 159 9.0 15.0 0.00 0.00 0.00 65 1009.3
20260504231509 81 148 12.0 17.0 0.00 0.00 0.00 65 1009.2
20260504231010 81 157 8.0 14.0 0.00 0.00 0.00 65 1009.3
20260504230510 81 181 9.0 15.0 0.00 0.00 0.00 65 1009.4
20260504230009 81 161 10.0 16.0 0.00 0.00 0.00 65 1009.4
20260504225509 81 150 12.0 18.0 0.00 0.00 0.00 65 1009.3
20260504225010 82 161 8.0 16.0 0.00 0.00 0.00 64 1009.3
20260504223511 82 163 11.0 18.0 0.00 0.00 0.00 64 1009.4
20260504223010 83 151 12.0 18.0 0.00 0.00 0.00 62 1009.5
20260504222011 82 169 11.0 16.0 0.00 0.00 0.00 63 1009.7
20260504221509 82 157 9.0 15.0 0.00 0.00 0.00 63 1009.8
20260504221009 82 160 10.0 16.0 0.00 0.00 0.00 63 1009.7
20260504220510 82 185 7.0 12.0 0.00 0.00 0.00 62 1009.8
20260504220009 83 184 7.0 13.0 0.00 0.00 0.00 62 1009.8
20260504213510 82 179 7.0 13.0 0.00 0.00 0.00 63 1010.0
20260504213010 82 163 6.0 13.0 0.00 0.00 0.00 63 1010.2
20260504212010 82 190 8.0 14.0 0.00 0.00 0.00 62 1010.3
20260504211510 82 193 7.0 10.0 0.00 0.00 0.00 63 1010.3